Tracking 29594 objects as of 20-Sep-2024
HD Live streaming from Space Station
objects crossing your sky now

FENGYUN 1C DEB

Track FENGYUN 1C DEB now!
10-day predictions


NORAD ID: 35139
Int'l Code: 1999-025DLT
Perigee: 782.6 km
Apogee: 884.3 km
Inclination: 98.6 °
Period: 101.4 minutes
Semi major axis: 7204 km
RCS: 0.0145 m2 (small)
Launch date: May 10, 1999
Source: People's Republic of China (PRC)
Launch site: Taiyaun Space Center, China (TSC)

Note: This is SATELLITE DEBRIS
Your satellite tracking list
Your tracking list is empty




NASA's NSSDC Master Catalog

Two Line Element Set (TLE):
1 35139U 99025DLT 24257.29435249  .00003457  00000-0  16129-2 0  9994
2 35139  98.5949 269.5000 0070519 174.2245 185.9761 14.19716596576875
Source of the keplerian elements: AFSPC